Regional Weather Roundup
Issued by NWS New Orleans/Baton Rouge, LA

Home | Current Version | Previous Version | Graphics & Text | Print | Product List | Glossary On
Versions: 1 2 3 4 5 6 7 8 9 10 11 12 13 14 15 16 17 18 19 20 21 22 23 24 25 26 27 28 29 30 31 32 33 34 35 36 37 38 39 40 41 42 43 44 45 46 47 48 49 50
078
ASUS44 KLIX 291701
RWRLIX
NEW ORLEANS REGIONAL WEATHER ROUNDUP
NATIONAL WEATHER SERVICE NEW ORLEANS LA
1200 PM CDT TUE JUL 29 2014

NOTE: "FAIR" INDICATES FEW OR NO CLOUDS BELOW 12,000 FEET WITH NO
      SIGNIFICANT WEATHER AND/OR OBSTRUCTIONS TO VISIBILITY.
      SKY/WX - SKY CONDITION AND SIGNIFICANT WEATHER.
      TMP - AIR TEMPERATURE.     DP    - DEWPOINT TEMPERATURE.
      RH  - RELATIVE HUMIDITY.   PRES  - PRESSURE.
      HI  - HEAT INDEX.          WCI   - WIND CHILL INDEX.

*  THESE STATIONS ARE NOT NWS OR FAA STATIONS AND ARE NOT UNDER
   NWS QUALITY CONTROL.

LAZ038-040-048-061>063-065>067-069-291800-
SOUTHEAST LOUISIANA

CITY           SKY/WX    TMP DP  RH WIND       PRES   REMARKS
N.O. AUDUBON     N/A     89  68  48 MISG        N/A
N.O. INTL ARPT PTSUNNY   85  67  54 NE8       30.08S
N.O. LAKEFRONT PTSUNNY   84  68  58 N8        30.08F
N.O. DOWNTOWN* PTSUNNY   84  64  51 N7        30.08S
SLIDELL        PTSUNNY   84  66  54 N8        30.07F
BATON ROUGE    PTSUNNY   85  66  53 NE6       30.09F
BOOTHVILLE     PTSUNNY   84  71  65 NE7       30.07F
BELLE CHASSE   CLOUDY    87  67  51 NE8       30.07S
BOGALUSA*        N/A     85  64  49 N6        30.10S
GALLIANO*      NOT AVBL
NEW ROADS*       N/A     82  67  60 E3        30.10S
GONZALES*      PTSUNNY   83  70  64 NE3       30.08F
HAMMOND*       MOSUNNY   88  63  42 CALM      30.10S
HOUMA*         PTSUNNY   84  70  61 NE7       30.07
PORT FOURCHON* CLOUDY    84  72  65 NE6       30.09S

$$

MSZ070-080>082-291800-
SOUTHERN MISSISSIPPI

CITY           SKY/WX    TMP DP  RH WIND       PRES   REMARKS
MCCOMB         SUNNY     84  62  47 VRB5      30.10F
GULFPORT       PTSUNNY   89  64  43 VRB5      30.06S
BILOXI         PTSUNNY   85  66  52 NE5       30.06F
PASCAGOULA     MOSUNNY   86  64  47 VRB6      30.05F

$$

COASTAL OBSERVATIONS
LAKE AND NEARSHORE STATIONS

STATION/POSITION TIME  TEMP    WIND        PRES    WAVE
                       AIR SEA DIR/SP/G            HT/PER
                 (UTC) (F)     (DEG/KT/KT) (MB)    (FT/S)
PASCAGOULA       1600   85      40/  5/  8 1017.3
WAVELAND YACHT   1600   81      30/  4/  7 1017.7
GRAND ISLE       1600   84 86   40/  5/  8 1018.9
SOUTHWEST PASS   1600   91 84   40/  6/  8 1018.2
NEW CANAL        1600   81 83   30/  7/  9 1019.1
SHELL BEACH      1600   81 81   30/  8/  9 1018.4

OFFSHORE STATIONS

STATION/POSITION TIME  TEMP    WIND        PRES    WAVE
                       AIR SEA DIR/SP/G            HT/PER
                 (UTC) (F)     (DEG/KT/KT) (MB)    (FT/S)
64 S DAUPHIN ISL 1554   82 86   40/  4/  6 1017.8

$$




USA.gov is the U.S. government's official web portal to all federal, state and local government web resources and services.